Home   Weather   Bălți   Past weeks

Flag for Moldova Past Weather in Bălți, Moldova — Yesterday and Last 2 Weeks

Now
63 °F

Mild.


Feels Like: 63 °F
Forecast: 56 / 75 °F
Wind: 9 mph from Southeast

Location: Baltsi-Leadoveni - The North of Moldova

Current Time: Oct 1, 2016 at 10:13:11 AM

Latest Report: Oct 1, 2016 at 9:30 AM


Visibility: N/A

Pressure: 30.04 "Hg

Humidity: 73%

Dew Point: 54 °F

Location of BălțiLocation

Past Weather in Bălți — Graph

°F

Bălți Temperature Yesterday

Maximum temperature yesterday: 79 °F (at 3:00 PM)
Minimum temperature yesterday: 55 °F (at 6:30 AM)
Average temperature yesterday: 67 °F

High & Low Weather Summary for the Past Weeks

 TemperatureHumidityPressure
High84 °F (Sep 17, 3:00 PM)100% (Sep 25, 5:00 AM)30.36 "Hg (Sep 25, 5:00 AM)
Low41 °F (Sep 28, 5:00 AM)30% (Sep 16, 5:30 PM)29.77 "Hg (Sep 20, 4:00 AM)
Average57 °F67%30.07 "Hg
* Reported Sep 16 9:00 AM — Oct 1 9:00 AM, Bălți, Weather by CustomWeather, © 2016

Note: Actual official high and low records may vary slightly from our data, if they occured in-between our weather recording intervals... More about our weather records

Advertising

Bălți Weather History for the Previous 24 Hours

Scroll right to see more
 ConditionsComfort  
Time TempWeatherWind HumidityBarometerVisibility
9:00 AM
Sat, Oct 1
61 °FCool.7 mph72%30.04 "HgN/A
8:00 AM59 °FCool.5 mph77%30.04 "HgN/A
7:30 AM57 °FCool.3 mph82%30.04 "HgN/A
7:00 AM57 °FCool.5 mph82%30.04 "HgN/A
6:30 AM57 °FCool.3 mph82%30.04 "HgN/A
6:00 AM57 °FCool.5 mph82%30.04 "HgN/A
5:30 AM59 °FCool.5 mph77%30.04 "HgN/A
5:00 AM59 °FCool.5 mph77%30.04 "HgN/A
4:00 AM59 °FCool.6 mph72%30.04 "HgN/A
3:30 AM61 °FCool.3 mph72%30.04 "HgN/A
3:00 AM61 °FCool.6 mph72%30.04 "HgN/A
2:30 AM63 °FMild.5 mph68%30.04 "HgN/A
2:00 AM63 °FMild.7 mph68%30.04 "HgN/A
1:30 AM63 °FMild.6 mph68%30.07 "HgN/A
1:00 AM64 °FMild.7 mph64%30.07 "HgN/A
12:30 AM63 °FMild.12 mph68%30.07 "HgN/A
12:00 AM63 °FMild.12 mph68%30.07 "HgN/A
11:30 PM
Fri, Sep 30
63 °FMild.14 mph68%30.07 "HgN/A
11:00 PM64 °FMild.10 mph64%30.07 "HgN/A
10:30 PM64 °FMild.7 mph64%30.07 "HgN/A
10:00 PM66 °FMild.7 mph56%30.07 "HgN/A
9:30 PM66 °FMild.8 mph56%30.07 "HgN/A
9:00 PM68 °FMild.8 mph53%30.07 "HgN/A
8:30 PM70 °FMild.9 mph53%30.07 "HgN/A
8:00 PM70 °FMild.8 mph50%30.07 "HgN/A
7:30 PM70 °FMild.8 mph50%30.07 "HgN/A
7:00 PM72 °FMild.8 mph47%30.07 "HgN/A
6:30 PM75 °FMild.10 mph44%30.07 "HgN/A
6:00 PM77 °FPleasantly warm.13 mph39%30.07 "HgN/A
5:30 PM79 °FPleasantly warm.13 mph39%30.07 "HgN/A
5:00 PM79 °FPleasantly warm.14 mph39%30.07 "HgN/A
4:30 PM79 °FPleasantly warm.13 mph39%30.07 "HgN/A
4:00 PM79 °FPleasantly warm.14 mph39%30.07 "HgN/A
3:30 PM79 °FPleasantly warm.15 mph39%30.07 "HgN/A
3:00 PM79 °FPleasantly warm.13 mph39%30.09 "HgN/A
2:30 PM77 °FWarm.14 mph44%30.09 "HgN/A
2:00 PM77 °FWarm.15 mph44%30.09 "HgN/A
1:30 PM77 °FWarm.16 mph44%30.09 "HgN/A
1:00 PM75 °FMild.15 mph47%30.12 "HgN/A
12:00 PM73 °FMild.15 mph50%30.12 "HgN/A
11:30 AM72 °FMild.14 mph50%30.12 "HgN/A
11:00 AM70 °FMild.13 mph53%30.12 "HgN/A
10:30 AM68 °FMild.10 mph56%30.12 "HgN/A
10:00 AM64 °FMild.7 mph64%30.12 "HgN/A
Weather by CustomWeather, © 2016

See weather overviewHow to use our weather pages